When you browse on this site, cookies collect data to enhance your experience and personalize the content and advertising you see.
Visit our Privacy Policy to learn more. By continuing to use the site, you agree to this use of cookies and data.
  • In Romania
  • List of Countries
  • For 7 days
  • Water Temperature
  • Satellite Maps
  • Weather Map
  • Weather Widgets
  • user-avatar
    Login

    Hourly Weather Kolosovo

    Today, 19 March, Tuesday

    Time Temperature Precipitation Wind Pressure Humidity
    00:00 +1°C° 0.3 mm 4 mps 744 mmHg 91%
    01:00 +2°C° 0.3 mm 3 mps 744 mmHg 93%
    02:00 +1°C° 0.3 mm 3 mps 744 mmHg 94%
    03:00 +2°C° 0.5 mm 2 mps 744 mmHg 95%
    04:00 +2°C° 0.5 mm 2 mps 744 mmHg 96%
    05:00 +2°C° 0.5 mm 2 mps 744 mmHg 97%
    06:00 +3°C° 0.1 mm 1 mps 744 mmHg 96%
    07:00 +3°C° 0.1 mm 1 mps 744 mmHg 95%
    08:00 +4°C° 0.1 mm 1 mps 745 mmHg 94%
    09:00 +4°C° 0 mm 2 mps 745 mmHg 90%
    10:00 +5°C° 0 mm 2 mps 745 mmHg 86%
    11:00 +6°C° 0 mm 2 mps 746 mmHg 82%
    12:00 +6°C° 0 mm 2 mps 746 mmHg 81%
    13:00 +5°C° 0 mm 3 mps 746 mmHg 81%
    14:00 +5°C° 0 mm 3 mps 746 mmHg 80%
    15:00 +5°C° 0 mm 3 mps 746 mmHg 83%
    16:00 +4°C° 0 mm 3 mps 746 mmHg 86%
    17:00 +4°C° 0 mm 2 mps 746 mmHg 89%
    18:00 +3°C° 0 mm 2 mps 746 mmHg 90%
    19:00 +2°C° 0 mm 2 mps 747 mmHg 91%
    20:00 0°C° 0 mm 3 mps 747 mmHg 91%
    21:00 +1°C° 0 mm 2 mps 747 mmHg 91%
    22:00 +1°C° 0 mm 2 mps 747 mmHg 92%
    23:00 +1°C° 0 mm 2 mps 747 mmHg 92%

    Tomorrow, 20 March, Wednesday

    Time Temperature Precipitation Wind Pressure Humidity
    00:00 +1°C° 0 mm 2 mps 747 mmHg 91%
    01:00 -1°C° 0 mm 2 mps 748 mmHg 91%
    02:00 -1°C° 0 mm 3 mps 748 mmHg 91%
    03:00 -1°C° 0 mm 3 mps 748 mmHg 91%
    04:00 -2°C° 0 mm 3 mps 748 mmHg 92%
    05:00 -2°C° 0 mm 3 mps 748 mmHg 92%
    06:00 -1°C° 0 mm 3 mps 748 mmHg 89%
    07:00 -1°C° 0 mm 3 mps 748 mmHg 87%
    08:00 -1°C° 0 mm 4 mps 749 mmHg 84%
    09:00 0°C° 0 mm 4 mps 749 mmHg 80%
    10:00 0°C° 0 mm 4 mps 749 mmHg 76%
    11:00 +1°C° 0 mm 4 mps 749 mmHg 73%
    12:00 +1°C° 0 mm 4 mps 749 mmHg 72%
    13:00 +1°C° 0 mm 4 mps 750 mmHg 72%
    14:00 +1°C° 0 mm 4 mps 750 mmHg 72%
    15:00 +2°C° 0 mm 3 mps 750 mmHg 74%
    16:00 +1°C° 0 mm 3 mps 750 mmHg 77%
    17:00 +1°C° 0 mm 3 mps 750 mmHg 79%
    18:00 0°C° 0 mm 3 mps 750 mmHg 81%
    19:00 -1°C° 0 mm 3 mps 749 mmHg 83%
    20:00 -1°C° 0 mm 3 mps 749 mmHg 85%
    21:00 -1°C° 0 mm 3 mps 749 mmHg 85%
    22:00 -2°C° 0 mm 3 mps 748 mmHg 84%
    23:00 -2°C° 0 mm 3 mps 748 mmHg 83%

    Day after tomorrow, 21 March, Thursday

    Time Temperature Precipitation Wind Pressure Humidity
    00:00 -2°C° 0.1 mm 3 mps 747 mmHg 84%
    01:00 -1°C° 0.1 mm 3 mps 747 mmHg 86%
    02:00 -2°C° 0.1 mm 4 mps 746 mmHg 87%
    03:00 -1°C° 0.3 mm 3 mps 746 mmHg 88%
    04:00 -1°C° 0.3 mm 3 mps 745 mmHg 89%
    05:00 -1°C° 0.3 mm 3 mps 745 mmHg 90%
    06:00 0°C° 0.2 mm 3 mps 745 mmHg 88%
    07:00 -1°C° 0.2 mm 4 mps 745 mmHg 86%
    08:00 0°C° 0.2 mm 4 mps 746 mmHg 84%
    09:00 0°C° 0 mm 4 mps 746 mmHg 81%
    10:00 0°C° 0 mm 4 mps 747 mmHg 77%
    11:00 +1°C° 0 mm 4 mps 747 mmHg 74%
    12:00 +1°C° 0 mm 4 mps 747 mmHg 73%
    13:00 +1°C° 0 mm 4 mps 748 mmHg 72%
    14:00 +1°C° 0 mm 4 mps 748 mmHg 71%
    15:00 +1°C° 0 mm 4 mps 748 mmHg 74%
    16:00 +2°C° 0 mm 3 mps 749 mmHg 76%
    17:00 +1°C° 0 mm 3 mps 749 mmHg 79%
    18:00 +1°C° 0 mm 2 mps 749 mmHg 83%
    19:00 -1°C° 0 mm 2 mps 749 mmHg 87%
    20:00 -2°C° 0 mm 2 mps 750 mmHg 91%
    21:00 -2°C° 0 mm 2 mps 750 mmHg 92%
    22:00 -2°C° 0 mm 2 mps 750 mmHg 92%
    23:00 -1°C° 0 mm 1 mps 750 mmHg 93%

    22 March, Friday

    Time Temperature Precipitation Wind Pressure Humidity
    00:00 -3°C° 0 mm 2 mps 749 mmHg 93%
    01:00 -2°C° 0 mm 2 mps 749 mmHg 93%
    02:00 -2°C° 0 mm 2 mps 749 mmHg 93%
    03:00 -2°C° 0 mm 2 mps 748 mmHg 91%
    04:00 -1°C° 0 mm 3 mps 748 mmHg 89%
    05:00 0°C° 0 mm 3 mps 748 mmHg 88%
    06:00 0°C° 0 mm 3 mps 747 mmHg 88%
    07:00 +1°C° 0 mm 3 mps 747 mmHg 88%
    08:00 +1°C° 0 mm 3 mps 747 mmHg 89%
    09:00 +1°C° 0.3 mm 4 mps 746 mmHg 88%
    10:00 +3°C° 0.3 mm 4 mps 746 mmHg 88%
    11:00 +3°C° 0.3 mm 4 mps 745 mmHg 88%
    12:00 +4°C° 0.1 mm 4 mps 744 mmHg 88%
    13:00 +5°C° 0.1 mm 5 mps 743 mmHg 88%
    14:00 +5°C° 0.1 mm 5 mps 743 mmHg 87%
    15:00 +5°C° 0.2 mm 5 mps 742 mmHg 88%
    16:00 +5°C° 0.2 mm 5 mps 741 mmHg 89%
    17:00 +5°C° 0.2 mm 5 mps 740 mmHg 90%
    18:00 +4°C° 0.2 mm 6 mps 740 mmHg 84%
    19:00 +3°C° 0.2 mm 6 mps 740 mmHg 78%
    20:00 +2°C° 0.2 mm 6 mps 739 mmHg 72%
    21:00 +2°C° 0 mm 6 mps 740 mmHg 73%
    22:00 0°C° 0 mm 7 mps 740 mmHg 73%
    23:00 -1°C° 0 mm 7 mps 740 mmHg 74%

    23 March, Saturday

    Time Temperature Precipitation Wind Pressure Humidity
    00:00 -1°C° 0 mm 7 mps 740 mmHg 74%
    01:00 -2°C° 0 mm 7 mps 741 mmHg 74%
    02:00 -2°C° 0 mm 7 mps 741 mmHg 73%
    03:00 -2°C° 0 mm 7 mps 742 mmHg 74%
    04:00 -3°C° 0 mm 6 mps 742 mmHg 75%
    05:00 -3°C° 0 mm 6 mps 742 mmHg 75%
    06:00 -3°C° 0 mm 6 mps 743 mmHg 74%
    07:00 -3°C° 0 mm 6 mps 743 mmHg 73%
    08:00 -2°C° 0 mm 6 mps 744 mmHg 71%
    09:00 -2°C° 0 mm 6 mps 744 mmHg 70%
    10:00 0°C° 0 mm 5 mps 744 mmHg 68%
    11:00 0°C° 0 mm 5 mps 744 mmHg 66%
    12:00 +1°C° 0 mm 5 mps 743 mmHg 66%
    13:00 +1°C° 0 mm 4 mps 743 mmHg 65%
    14:00 +1°C° 0 mm 4 mps 743 mmHg 64%
    15:00 +1°C° 0.1 mm 4 mps 742 mmHg 69%
    16:00 0°C° 0.1 mm 4 mps 742 mmHg 73%
    17:00 +1°C° 0.1 mm 3 mps 741 mmHg 78%
    18:00 0°C° 0.2 mm 3 mps 741 mmHg 81%
    19:00 +1°C° 0.2 mm 2 mps 741 mmHg 85%
    20:00 +1°C° 0.2 mm 2 mps 740 mmHg 88%
    21:00 +1°C° 0.1 mm 2 mps 741 mmHg 89%
    22:00 0°C° 0.1 mm 3 mps 741 mmHg 89%
    23:00 0°C° 0.1 mm 3 mps 741 mmHg 89%

    24 March, Sunday

    Time Temperature Precipitation Wind Pressure Humidity
    00:00 0°C° 0 mm 3 mps 741 mmHg 88%
    01:00 0°C° 0 mm 3 mps 742 mmHg 86%
    02:00 0°C° 0 mm 3 mps 742 mmHg 85%
    03:00 0°C° 0 mm 3 mps 742 mmHg 85%
    04:00 -1°C° 0 mm 3 mps 743 mmHg 85%
    05:00 -1°C° 0 mm 3 mps 743 mmHg 86%
    06:00 0°C° 0 mm 3 mps 743 mmHg 83%
    07:00 -1°C° 0 mm 4 mps 744 mmHg 81%
    08:00 -1°C° 0 mm 4 mps 744 mmHg 79%
    09:00 -1°C° 0 mm 4 mps 744 mmHg 76%
    10:00 0°C° 0 mm 4 mps 744 mmHg 73%
    11:00 +1°C° 0 mm 3 mps 744 mmHg 70%
    12:00 +2°C° 0 mm 3 mps 744 mmHg 67%
    13:00 +3°C° 0 mm 3 mps 743 mmHg 63%
    14:00 +4°C° 0 mm 3 mps 743 mmHg 60%
    15:00 +4°C° 0 mm 2 mps 743 mmHg 63%
    16:00 +4°C° 0 mm 2 mps 742 mmHg 67%
    17:00 +4°C° 0 mm 1 mps 742 mmHg 71%
    18:00 +3°C° 0 mm 1 mps 741 mmHg 75%
    19:00 +3°C° 0 mm 1 mps 741 mmHg 79%
    20:00 +2°C° 0 mm 1 mps 741 mmHg 83%
    21:00 +2°C° 0 mm 1 mps 740 mmHg 84%
    22:00 +1°C° 0 mm 1 mps 739 mmHg 86%
    23:00 +1°C° 0 mm 1 mps 738 mmHg 88%
    Show more